Showing default

ATS 6, 7318

Orbit data source: Space-Track

ATS 6, 7318 is a payload satellite owned by GSFC (US) in GEO that was launched on Thu, 30 May 1974 UTC via a TITAN IIIC launch vehicle from the Air Force Eastern Test Range (AFETR). Payload-class satellites include a variety of spacecraft equipped with specific instruments for various scientific and technological missions. These include communications satellites like Starlink; space stations such as the ISS; scientific satellites like the Hubble; Earth observation satellites from companies like Planet Labs, Umbra, and HawkEye 360; GPS; miniature CubeSats for education and research; and military/defense satellites.

Loading next visibility...
Identifier
7318, 1974-039A
Orbit
GEO
Country
Flag of USUS
Related business
Manufacturer
Fairchild
Mission
Non-operational spacecraft
Bus & Motor
ATS F, Unknown motor
Mass
1,357 kg wet, 1,308 kg dry
Launch date (UTC)
1974-05-30 (52 years ago)
Launch vehicle
TITAN IIIC
Launch site
Air Force Eastern Test Range (AFETR)
Object type
Payload
Rocket body
Debris
Shape & HBR
BOX + TRUSS + DISH, 1.1 m
Radar Cross Section
Large (>1 m²)

Expand to show TLE details & history
Last TLE update: 5 hours ago

TLE from 5 hours ago
0 ATS 6
1 07318U 74039A   26267.25632993 -.00000153  00000-0  00000-0 0  9994
2 07318   1.7196 242.8256 0033620 351.1045 157.4117  1.01978687123017
Epoch: 2026-09-24T06:09Z
TLE epoch observation values (Epoch: 2026-09-24T06:09:06.905Z)
Latitude
0.87735°
Longitude
-63.89186°
Altitude
35,443.55 km
Speed
3.082 km/s
True Right ascension
02h 05m 55s
True Declination
0° 52' 35"
Sunlit
Object was in daylight at epoch
Visualization orbit readout
Latitude
Unknown
Longitude
Unknown
Altitude
Unknown
Speed
Unknown
Apparent Right ascension
Unknown
Apparent Declination
Unknown
Sunlit
N/A
Visualization observer readout
Local Sidereal Time
04:31:44
Azimuth
Unknown
Elevation
Unknown
Doppler factor
Unknown
Orbital elements
Apogee altitude
35,456.031 km
Perigee altitude
35,175.68 km
Semi-major axis
41,693.993 km
Eccentricity
0.00336
Inclination
1.7196°
RAAN
242.8256°
Arg. of periapsis
351.1045°
True anomaly
157.55911°
Mean anomaly
157.4117°
Eccentric anomaly
157.48546°
Mean motion
0.25494 °/min
Orbital period
1,412.11 mins
BSTAR
0
Loading maneuver chart data...
Computing Atmospheric mass density...
Loading historical data...
Loading historical data...
Loading historical data...
Loading historical data...
Loading historical data...
Loading historical data...
Loading historical data...
Other satellites on launch #39 in the year 1974 (1974-05-30 UTC)

Documentation

Showing up to 5 results
|